Location: Namasale
(1.5000°N, 32.6167°E)
Time: 08:41:00
(UTC+00:00)

Vanguard 1 Rocket - Pass Details

Date: 26 April 2021
Orbit: 652 x 4225 km, 34.3° (Epoch: 15 May)

Event Time Altitude Azimuth Distance (km) Brightness Sun altitude
Rises 07:40:16 0° 253° (WSW) 7,646 11.8 56.3°
Reaches altitude 10° 07:47:03 10° 262° (W) 6,055 11.4 57.9°
Maximum altitude 08:00:56 31° 317° (NW) 3,135 10.4 61.0°
Drops below altitude 10° 08:09:02 10° 18° (NNE) 3,480 10.8 62.8°
Sets 08:11:47 0° 29° (NNE) 4,098 11.1 63.4°
